• In Hungary
  • List of Countries
  • For 7 days
  • Water Temperature
  • Satellite Maps
  • Weather Map
  • News
  • Weather Widgets
  • user-avatar
    Login

    Hourly Weather Ziewanice

    Today, 19 September, Wednesday

    Time Temperature Precipitation Wind Pressure Humidity
    00:00 +19°C° 0 mm 4 mps 752 mmHg 66%
    01:00 +19°C° 0 mm 4 mps 752 mmHg 66%
    02:00 +19°C° 0 mm 4 mps 752 mmHg 65%
    03:00 +18°C° 0 mm 4 mps 752 mmHg 65%
    04:00 +18°C° 0 mm 4 mps 752 mmHg 64%
    05:00 +18°C° 0 mm 4 mps 752 mmHg 63%
    06:00 +19°C° 0 mm 4 mps 752 mmHg 62%
    07:00 +19°C° 0 mm 4 mps 752 mmHg 61%
    08:00 +21°C° 0 mm 4 mps 752 mmHg 57%
    09:00 +23°C° 0 mm 4 mps 752 mmHg 52%
    10:00 +26°C° 0 mm 4 mps 752 mmHg 48%
    11:00 +27°C° 0 mm 4 mps 752 mmHg 46%
    12:00 +28°C° 0 mm 4 mps 752 mmHg 44%
    13:00 +29°C° 0 mm 4 mps 752 mmHg 43%
    14:00 +29°C° 0 mm 3 mps 752 mmHg 44%
    15:00 +29°C° 0 mm 3 mps 752 mmHg 46%
    16:00 +29°C° 0 mm 3 mps 752 mmHg 47%
    17:00 +27°C° 0 mm 2 mps 752 mmHg 52%
    18:00 +25°C° 0 mm 2 mps 752 mmHg 57%
    19:00 +23°C° 0 mm 2 mps 752 mmHg 62%
    20:00 +23°C° 0 mm 2 mps 753 mmHg 64%
    21:00 +21°C° 0 mm 2 mps 753 mmHg 66%
    22:00 +21°C° 0 mm 2 mps 753 mmHg 68%
    23:00 +20°C° 0 mm 2 mps 753 mmHg 69%

    Tomorrow, 20 September, Thursday

    Time Temperature Precipitation Wind Pressure Humidity
    00:00 +20°C° 0 mm 2 mps 753 mmHg 71%
    01:00 +20°C° 0 mm 2 mps 753 mmHg 72%
    02:00 +19°C° 0 mm 2 mps 753 mmHg 73%
    03:00 +19°C° 0 mm 2 mps 753 mmHg 75%
    04:00 +19°C° 0 mm 2 mps 753 mmHg 76%
    05:00 +19°C° 0 mm 2 mps 753 mmHg 75%
    06:00 +20°C° 0 mm 2 mps 753 mmHg 74%
    07:00 +20°C° 0 mm 2 mps 753 mmHg 73%
    08:00 +22°C° 0 mm 3 mps 753 mmHg 66%
    09:00 +25°C° 0 mm 3 mps 753 mmHg 60%
    10:00 +27°C° 0 mm 3 mps 753 mmHg 53%
    11:00 +28°C° 0 mm 3 mps 753 mmHg 50%
    12:00 +29°C° 0 mm 3 mps 753 mmHg 47%
    13:00 +30°C° 0 mm 3 mps 753 mmHg 43%
    14:00 +30°C° 0 mm 3 mps 753 mmHg 44%
    15:00 +29°C° 0 mm 2 mps 752 mmHg 44%
    16:00 +29°C° 0 mm 2 mps 752 mmHg 45%
    17:00 +27°C° 0 mm 2 mps 752 mmHg 49%
    18:00 +26°C° 0 mm 2 mps 752 mmHg 53%
    19:00 +24°C° 0 mm 2 mps 752 mmHg 58%
    20:00 +23°C° 0 mm 2 mps 752 mmHg 58%
    21:00 +23°C° 0 mm 2 mps 752 mmHg 59%
    22:00 +21°C° 0 mm 2 mps 752 mmHg 60%
    23:00 +21°C° 0 mm 2 mps 752 mmHg 60%

    Day after tomorrow, 21 September, Friday

    Time Temperature Precipitation Wind Pressure Humidity
    00:00 +20°C° 0 mm 3 mps 752 mmHg 60%
    01:00 +20°C° 0 mm 3 mps 752 mmHg 60%
    02:00 +19°C° 0 mm 3 mps 752 mmHg 60%
    03:00 +19°C° 0 mm 3 mps 752 mmHg 61%
    04:00 +18°C° 0 mm 3 mps 751 mmHg 62%
    05:00 +19°C° 0 mm 3 mps 751 mmHg 62%
    06:00 +19°C° 0 mm 3 mps 751 mmHg 63%
    07:00 +20°C° 0 mm 4 mps 751 mmHg 64%
    08:00 +22°C° 0 mm 4 mps 751 mmHg 58%
    09:00 +25°C° 0 mm 5 mps 750 mmHg 52%
    10:00 +27°C° 0 mm 5 mps 750 mmHg 47%
    11:00 +28°C° 0 mm 6 mps 749 mmHg 43%
    12:00 +29°C° 0 mm 6 mps 749 mmHg 40%
    13:00 +29°C° 0 mm 6 mps 748 mmHg 37%
    14:00 +29°C° 0 mm 6 mps 748 mmHg 38%
    15:00 +29°C° 0 mm 5 mps 747 mmHg 39%
    16:00 +29°C° 0 mm 5 mps 747 mmHg 40%
    17:00 +27°C° 0 mm 5 mps 746 mmHg 43%
    18:00 +26°C° 0 mm 5 mps 746 mmHg 46%
    19:00 +23°C° 0 mm 5 mps 746 mmHg 49%
    20:00 +23°C° 0 mm 6 mps 746 mmHg 48%
    21:00 +24°C° 0 mm 6 mps 746 mmHg 48%
    22:00 +24°C° 0 mm 6 mps 746 mmHg 47%
    23:00 +22°C° 0 mm 7 mps 747 mmHg 54%

    22 September, Saturday

    Time Temperature Precipitation Wind Pressure Humidity
    00:00 +20°C° 0 mm 7 mps 748 mmHg 60%
    01:00 +17°C° 0 mm 8 mps 748 mmHg 67%
    02:00 +15°C° 0.5 mm 7 mps 749 mmHg 70%
    03:00 +14°C° 0.5 mm 6 mps 750 mmHg 72%
    04:00 +12°C° 0.5 mm 5 mps 751 mmHg 75%
    05:00 +12°C° 1.1 mm 5 mps 751 mmHg 76%
    06:00 +12°C° 1.1 mm 4 mps 752 mmHg 78%
    07:00 +12°C° 1.1 mm 4 mps 753 mmHg 80%
    08:00 +12°C° 0.1 mm 4 mps 753 mmHg 76%
    09:00 +13°C° 0.1 mm 5 mps 753 mmHg 73%
    10:00 +13°C° 0.1 mm 5 mps 754 mmHg 69%
    11:00 +13°C° 0 mm 5 mps 754 mmHg 66%
    12:00 +14°C° 0 mm 5 mps 753 mmHg 64%
    13:00 +14°C° 0 mm 6 mps 753 mmHg 61%
    14:00 +14°C° 0.1 mm 5 mps 753 mmHg 59%
    15:00 +15°C° 0.1 mm 5 mps 753 mmHg 57%
    16:00 +15°C° 0.1 mm 5 mps 753 mmHg 54%
    17:00 +14°C° 0.1 mm 5 mps 753 mmHg 58%
    18:00 +13°C° 0.1 mm 4 mps 753 mmHg 61%
    19:00 +12°C° 0.1 mm 3 mps 753 mmHg 64%
    20:00 +12°C° 0 mm 3 mps 753 mmHg 65%
    21:00 +12°C° 0 mm 3 mps 754 mmHg 66%
    22:00 +11°C° 0 mm 3 mps 754 mmHg 67%
    23:00 +11°C° 0 mm 3 mps 754 mmHg 67%

    23 September, Sunday

    Time Temperature Precipitation Wind Pressure Humidity
    00:00 +10°C° 0 mm 3 mps 754 mmHg 67%
    01:00 +10°C° 0 mm 3 mps 754 mmHg 68%
    02:00 +10°C° 0 mm 3 mps 754 mmHg 69%
    03:00 +9°C° 0 mm 3 mps 754 mmHg 70%
    04:00 +9°C° 0 mm 3 mps 754 mmHg 71%
    05:00 +8°C° 0 mm 4 mps 754 mmHg 70%
    06:00 +10°C° 0 mm 4 mps 754 mmHg 69%
    07:00 +9°C° 0 mm 5 mps 754 mmHg 69%
    08:00 +10°C° 0 mm 5 mps 754 mmHg 62%
    09:00 +13°C° 0 mm 5 mps 754 mmHg 55%
    10:00 +14°C° 0 mm 6 mps 754 mmHg 48%
    11:00 +15°C° 0 mm 5 mps 754 mmHg 45%
    12:00 +16°C° 0 mm 5 mps 753 mmHg 43%
    13:00 +16°C° 0 mm 5 mps 752 mmHg 40%
    14:00 +17°C° 0 mm 4 mps 752 mmHg 41%
    15:00 +17°C° 0 mm 4 mps 751 mmHg 42%
    16:00 +17°C° 0 mm 3 mps 751 mmHg 44%
    17:00 +16°C° 0 mm 3 mps 750 mmHg 47%
    18:00 +14°C° 0 mm 3 mps 749 mmHg 51%
    19:00 +13°C° 0 mm 3 mps 748 mmHg 54%
    20:00 +13°C° 1 mm 4 mps 747 mmHg 61%
    21:00 +12°C° 1 mm 4 mps 746 mmHg 68%
    22:00 +12°C° 1 mm 5 mps 745 mmHg 75%
    23:00 +12°C° 1.6 mm 5 mps 743 mmHg 76%

    24 September, Monday

    Time Temperature Precipitation Wind Pressure Humidity
    00:00 +11°C° 1.6 mm 6 mps 742 mmHg 77%
    01:00 +10°C° 1.6 mm 7 mps 741 mmHg 78%
    02:00 +11°C° 2.9 mm 7 mps 739 mmHg 80%
    03:00 +11°C° 2.9 mm 8 mps 738 mmHg 82%
    04:00 +11°C° 2.9 mm 8 mps 736 mmHg 84%
    05:00 +12°C° 1.7 mm 8 mps 736 mmHg 82%
    06:00 +12°C° 1.7 mm 8 mps 736 mmHg 80%
    07:00 +13°C° 1.7 mm 9 mps 736 mmHg 77%
    08:00 +13°C° 0.1 mm 9 mps 735 mmHg 76%
    09:00 +12°C° 0.1 mm 9 mps 735 mmHg 74%
    10:00 +12°C° 0.1 mm 9 mps 734 mmHg 73%
    11:00 +12°C° 0.4 mm 9 mps 734 mmHg 74%
    12:00 +13°C° 0.4 mm 9 mps 734 mmHg 75%
    13:00 +13°C° 0.4 mm 10 mps 734 mmHg 77%
    14:00 +12°C° 0.5 mm 10 mps 734 mmHg 78%
    15:00 +11°C° 0.5 mm 11 mps 735 mmHg 80%
    16:00 +9°C° 0.5 mm 12 mps 736 mmHg 81%
    17:00 +9°C° 1 mm 12 mps 736 mmHg 80%
    18:00 +9°C° 1 mm 13 mps 737 mmHg 79%
    19:00 +10°C° 1 mm 14 mps 738 mmHg 78%
    20:00 +9°C° 0.9 mm 14 mps 739 mmHg 79%
    21:00 +9°C° 0.9 mm 14 mps 740 mmHg 79%
    22:00 +9°C° 0.9 mm 14 mps 741 mmHg 80%
    23:00 +8°C° 0.6 mm 14 mps 742 mmHg 80%
    Show more